Címlap Időjárás Ferihegy, Budapest Airport időjárás előrejelzés – METAR, TAF BUD/LHBP

Időjárás Ferihegy, Budapest Airport időjárás előrejelzés – METAR, TAF BUD/LHBP

Aktuális szöveges időjárásjelentés / METAR BUD/LHBP, és 24 órás szöveges időjárás-előrejelzés / TAF BUD/LHBP Budapest Liszt Ferenc Nemzetközi Repülőtér

Available data for LHBP from the past 6 hours
Metar
LHBP 222200Z VRB03KT CAVOK 05/01 Q1029 NOSIG

22:00 UTC

Wind: ° 3kt

Visibility:

Sky:

Temp: 5 deg C / 41 deg F

Dewpoint: 1 deg C / 33.8 deg F

Pressure: 1029 hPa

TAF
TAF LHBP 221715Z 2218/2318 VRB03KT CAVOK TEMPO 2300/2304 07007KT

Szélirány és erősség Ferihegy és környéke

Európa műholdkép


6 napos időjárás előrejelzés – Budapest Ferihegy Airport


Data is taken from the National Weather Service at NOAA. Satelite image by AustroControl & Meteo-Mc. Only for spotters, do not use for real flight!

A METAR és a TAF adatok a National Weather Service adatbázisából származnak. Az oldalon közölt adatok tájékoztató jellegűek, az oldal üzemeltetője nem vállal felelősséget ezek esetleges pontatlanságáért. Ne használd valós repüléshez!

Néhány hasznos infó, mielőtt repülőre szállsz